{"data":{"norad_id":62269,"intl_designator":"2024-237C","name":"STARLINK-11491 [DTC]","alt_names":[],"object_type":"PAYLOAD","status":"ACTIVE","operator":null,"country":"US","launch_date":"2024-12-08","launch_site_code":"AFETR","launch_vehicle":null,"mission":null,"orbit_class":"UNKNOWN","rcs_meters":null,"size_class":null,"mass_kg":null,"dimensions":null,"purposes":["comms"],"wikipedia_slug":null,"has_3d_model":false,"image_url":null,"decayed_at":null,"tle_current":{"epoch":"2026-09-21T04:53:12.796512Z","epoch_age_seconds":116897,"freshness":"FRESH","line1":"1 62269U 24237C   26264.20362033  .00193542  00000+0  14668-2 0  9992","line2":"2 62269  42.9977 317.9284 0001748 205.6216 154.4565 15.71004855103809","mean_motion":15.71004855,"eccentricity":0.0001748,"inclination_deg":42.9977,"raan_deg":317.9284,"arg_perigee_deg":205.6216,"mean_anomaly_deg":154.4565,"bstar":0.0014668,"rev_number":10380,"period_min":91.661078921363,"perigee_km":354.84678500142,"apogee_km":357.20104765777,"semimajor_km":6734.1609163296,"source":"CELESTRAK","updated_at":"2026-09-22T09:00:49.565944Z"}}}